OH6GKW Weather Reports


Display with metric or nautical units.
time (UTC)temp
F
wind
direction
speed
MPH
gust
MPH
rain 1hr
in
rain 24hr
in
rain mn
in
humidity
%
barometer
mb
20260506134347 45 237 8.0 0.0 0.00 0.00 0.00 57 1008.8
20260506133839 45 258 9.0 0.0 0.00 0.00 0.00 56 1008.8
20260506133334 45 227 9.0 0.0 0.00 0.00 0.00 56 1008.8
20260506132844 45 276 8.0 0.0 0.00 0.00 0.00 55 1008.7
20260506132336 46 276 7.0 0.0 0.00 0.00 0.00 56 1008.7
20260506131848 46 193 8.0 0.0 0.00 0.00 0.00 56 1008.7
20260506131345 45 285 7.0 0.0 0.00 0.00 0.00 56 1008.5
20260506130840 45 257 7.0 0.0 0.00 0.00 0.00 57 1008.5
20260506130339 45 211 8.0 0.0 0.00 0.00 0.00 58 1008.5
20260506125832 45 267 8.0 0.0 0.00 0.00 0.00 59 1008.5
20260506125353 45 268 7.0 0.0 0.00 0.00 0.00 59 1008.5
20260506124848 45 207 8.0 0.0 0.00 0.00 0.00 59 1008.5
20260506124341 45 221 8.0 0.0 0.00 0.00 0.00 60 1008.5
20260506123836 45 226 8.0 0.0 0.00 0.00 0.00 62 1008.5
20260506123331 44 220 7.0 0.0 0.00 0.00 0.00 62 1008.5
20260506122845 44 204 7.0 0.0 0.00 0.00 0.00 62 1008.4
20260506122338 44 226 8.0 0.0 0.00 0.00 0.00 63 1008.4
20260506121833 44 240 8.0 0.0 0.00 0.00 0.00 64 1008.4
20260506121358 44 219 7.0 0.0 0.00 0.00 0.00 65 1008.3
20260506120842 44 245 7.0 0.0 0.00 0.00 0.00 65 1008.3
20260506120355 43 240 8.0 0.0 0.00 0.00 0.00 64 1008.3
20260506115830 43 216 7.0 0.0 0.00 0.00 0.00 63 1008.1
20260506115354 43 282 7.0 0.0 0.00 0.00 0.00 65 1008.1
20260506114846 42 204 7.0 0.0 0.00 0.00 0.00 65 1008.1
20260506114339 42 281 6.0 0.0 0.00 0.00 0.00 65 1008.0
20260506113834 42 190 6.0 0.0 0.00 0.00 0.00 67 1008.0
20260506113349 42 228 6.0 0.0 0.00 0.00 0.00 67 1008.0
20260506112844 42 210 6.0 0.0 0.00 0.00 0.00 66 1007.9
20260506112337 41 228 7.0 0.0 0.00 0.00 0.00 67 1007.9
20260506111831 41 216 7.0 0.0 0.00 0.00 0.00 66 1007.9
20260506111327 41 272 7.0 0.0 0.00 0.00 0.00 67 1007.7
20260506110851 41 228 8.0 0.0 0.00 0.00 0.00 66 1007.7
20260506110348 41 248 7.0 0.0 0.00 0.00 0.00 68 1007.7
20260506105838 41 257 7.0 0.0 0.00 0.00 0.00 68 1007.5
20260506105331 41 261 8.0 0.0 0.00 0.00 0.00 69 1007.5
20260506104844 41 226 8.0 0.0 0.00 0.00 0.00 68 1007.5
20260506104337 41 244 8.0 0.0 0.00 0.00 0.00 69 1007.4
20260506103833 41 247 7.0 0.0 0.00 0.00 0.00 69 1007.4
20260506103348 41 189 7.0 0.0 0.00 0.00 0.00 68 1007.4
20260506102840 41 227 8.0 0.0 0.00 0.00 0.00 69 1007.2
20260506102333 41 193 8.0 0.0 0.00 0.00 0.00 69 1007.2
20260506101837 41 228 8.0 0.0 0.00 0.00 0.00 69 1007.2
20260506101345 40 228 8.0 0.0 0.00 0.00 0.00 68 1006.9
20260506100837 40 224 7.0 0.0 0.00 0.00 0.00 69 1006.9
20260506100332 40 219 7.0 0.0 0.00 0.00 0.00 69 1006.9
20260506095842 40 227 6.0 0.0 0.00 0.00 0.00 70 1006.8
20260506095335 40 228 6.0 0.0 0.00 0.00 0.00 69 1006.8
20260506094859 40 216 7.0 0.0 0.00 0.00 0.00 70 1006.8
20260506094352 40 217 7.0 0.0 0.00 0.00 0.00 71 1006.6
20260506093844 40 261 7.0 0.0 0.00 0.00 0.00 70 1006.6
20260506093339 41 247 6.0 0.0 0.00 0.00 0.00 70 1006.6
20260506092836 41 228 5.0 0.0 0.00 0.00 0.00 71 1006.4
20260506092345 41 233 6.0 0.0 0.00 0.00 0.00 71 1006.4
20260506091837 41 243 7.0 0.0 0.00 0.00 0.00 71 1006.4
20260506091330 41 267 7.0 0.0 0.00 0.00 0.00 70 1006.2
20260506090843 41 282 8.0 0.0 0.00 0.00 0.00 71 1006.2
20260506090338 41 202 7.0 0.0 0.00 0.00 0.00 70 1006.2
20260506085830 41 182 7.0 0.0 0.00 0.00 0.00 69 1006.0
20260506085355 41 238 9.0 0.0 0.00 0.00 0.00 69 1006.0
20260506084846 41 207 9.0 0.0 0.00 0.00 0.00 68 1006.0
20260506084339 42 233 8.0 0.0 0.00 0.00 0.00 67 1005.9
20260506083836 42 258 8.0 0.0 0.00 0.00 0.00 66 1005.9
20260506083346 42 292 8.0 0.0 0.00 0.00 0.00 65 1005.9
20260506082842 42 243 7.0 0.0 0.00 0.00 0.00 66 1005.8
20260506082336 43 288 7.0 0.0 0.00 0.00 0.00 64 1005.8
20260506081828 42 292 8.0 0.0 0.00 0.00 0.00 64 1005.8
20260506081344 42 238 7.0 0.0 0.00 0.00 0.00 64 1005.6
20260506080836 42 235 7.0 0.0 0.00 0.00 0.00 65 1005.6
20260506080331 42 241 8.0 0.0 0.00 0.00 0.00 65 1005.6
20260506073345 41 282 7.0 0.0 0.00 0.00 0.00 67 1005.2
20260506072836 41 234 8.0 0.0 0.00 0.00 0.00 68 1005.1
20260506072400 41 235 7.0 0.0 0.00 0.00 0.00 67 1005.1
20260506071839 41 230 6.0 0.0 0.00 0.00 0.00 67 1005.1
20260506071335 41 216 7.0 0.0 0.00 0.00 0.00 67 1004.9
20260506070841 40 207 9.0 0.0 0.00 0.00 0.00 67 1004.9
20260506070334 40 227 8.0 0.0 0.00 0.00 0.00 68 1004.9
20260506062352 40 255 7.0 0.0 0.00 0.00 0.00 67 1004.3
20260506061848 40 272 7.0 0.0 0.00 0.00 0.00 67 1004.3
20260506061341 40 262 7.0 0.0 0.00 0.00 0.00 67 1004.1
20260506060832 40 289 7.0 0.0 0.00 0.00 0.00 67 1004.1
20260506060346 40 272 6.0 0.0 0.00 0.00 0.00 67 1004.1
20260506051335 39 248 6.0 0.0 0.00 0.00 0.00 71 1003.4
20260506050843 39 241 6.0 0.0 0.00 0.00 0.00 72 1003.4
20260506050337 39 274 7.0 0.0 0.00 0.00 0.00 71 1003.4
20260506044848 39 275 6.0 0.0 0.00 0.00 0.00 71 1003.3
20260506044340 38 261 6.0 0.0 0.00 0.00 0.00 71 1003.2
20260506043833 38 259 6.0 0.0 0.00 0.00 0.00 71 1003.2
20260506043350 38 228 6.0 0.0 0.00 0.00 0.00 72 1003.2
20260506042840 38 243 6.0 0.0 0.00 0.00 0.00 71 1003.1
20260506042333 38 254 5.0 0.0 0.00 0.00 0.00 72 1003.1
20260506041842 38 275 5.0 0.0 0.00 0.00 0.00 73 1003.1
20260506041338 38 264 4.0 0.0 0.00 0.00 0.00 73 1003.0
20260506040831 38 258 3.0 0.0 0.00 0.00 0.00 73 1003.0
20260506040357 38 264 3.0 0.0 0.00 0.00 0.00 73 1003.0
20260506035847 38 274 3.0 0.0 0.00 0.00 0.00 73 1002.8
20260506035340 38 240 3.0 0.0 0.00 0.00 0.00 74 1002.8
20260506034832 37 250 3.0 0.0 0.00 0.00 0.00 74 1002.8
20260506034345 37 281 3.0 0.0 0.00 0.00 0.00 74 1002.8
20260506033837 37 241 1.0 0.0 0.00 0.00 0.00 74 1002.8
20260506033332 37 274 0.0 0.0 0.00 0.00 0.00 75 1002.8
20260506032850 37 235 2.0 0.0 0.00 0.00 0.00 75 1002.7
20260506032343 37 295 3.0 0.0 0.00 0.00 0.00 75 1002.7
20260506031835 37 267 2.0 0.0 0.00 0.00 0.00 76 1002.7
20260506031331 37 231 3.0 0.0 0.00 0.00 0.00 76 1002.6
20260506030844 36 262 2.0 0.0 0.00 0.00 0.00 76 1002.6
20260506030339 36 265 2.0 0.0 0.00 0.00 0.00 76 1002.6
20260506025830 36 250 2.0 0.0 0.00 0.00 0.00 76 1002.5
20260506025347 36 267 2.0 0.0 0.00 0.00 0.00 76 1002.5
20260506024839 36 282 3.0 0.0 0.00 0.00 0.00 76 1002.5
20260506024332 36 230 3.0 0.0 0.00 0.00 0.00 76 1002.4
20260506023852 36 264 2.0 0.0 0.00 0.00 0.00 75 1002.4
20260506023350 36 258 3.0 0.0 0.00 0.00 0.00 75 1002.4
20260506022841 36 228 4.0 0.0 0.00 0.00 0.00 75 1002.3
20260506022337 36 283 3.0 0.0 0.00 0.00 0.00 75 1002.3
20260506021829 36 245 2.0 0.0 0.00 0.00 0.00 75 1002.3
20260506021346 36 261 2.0 0.0 0.00 0.00 0.00 75 1002.2
20260506020837 36 262 2.0 0.0 0.00 0.00 0.00 75 1002.2
20260506020335 37 254 2.0 0.0 0.00 0.00 0.00 75 1002.2
20260506015845 37 241 3.0 0.0 0.00 0.00 0.00 74 1002.1
20260506015342 37 254 3.0 0.0 0.00 0.00 0.00 74 1002.1
20260506014830 37 264 3.0 0.0 0.00 0.00 0.00 73 1002.1
20260506014355 37 279 4.0 0.0 0.00 0.00 0.00 73 1001.9
20260506013847 37 261 3.0 0.0 0.00 0.00 0.00 73 1001.9
20260506013345 37 240 2.0 0.0 0.00 0.00 0.00 73 1001.9
20260506012840 37 245 2.0 0.0 0.00 0.00 0.00 73 1001.7
20260506012336 37 300 2.0 0.0 0.00 0.00 0.00 72 1001.7
20260506011829 37 293 2.0 0.0 0.00 0.00 0.00 72 1001.7
20260506011342 37 274 2.0 0.0 0.00 0.00 0.00 72 1001.7
20260506010834 37 289 3.0 0.0 0.00 0.00 0.00 71 1001.7
20260506010400 38 268 3.0 0.0 0.00 0.00 0.00 71 1001.7
20260506005835 38 274 3.0 0.0 0.00 0.00 0.00 71 1001.6
20260506005400 38 283 3.0 0.0 0.00 0.00 0.00 71 1001.6
20260506004833 37 243 3.0 0.0 0.00 0.00 0.00 71 1001.6
20260506004345 38 269 3.0 0.0 0.00 0.00 0.00 72 1001.5
20260506003838 38 257 3.0 0.0 0.00 0.00 0.00 71 1001.5
20260506003337 38 320 3.0 0.0 0.00 0.00 0.00 72 1001.5
20260506002846 38 261 3.0 0.0 0.00 0.00 0.00 71 1001.5
20260506002339 38 264 3.0 0.0 0.00 0.00 0.00 71 1001.5
20260506001831 38 296 3.0 0.0 0.00 0.00 0.00 70 1001.5
20260506001334 38 245 3.0 0.0 0.00 0.00 0.00 70 1001.2
20260506000854 38 282 2.0 0.0 0.00 0.00 0.00 70 1001.2
20260506000349 38 264 2.0 0.0 0.00 0.00 0.00 70 1001.2
20260505235839 38 281 3.0 0.0 0.00 0.00 0.00 69 1001.2
20260505235332 38 292 3.0 0.0 0.00 0.00 0.00 69 1001.2
20260505234847 38 252 3.0 0.0 0.00 0.00 0.00 69 1001.2
20260505234340 38 268 2.0 0.0 0.00 0.00 0.00 69 1001.2
20260505233833 38 252 2.0 0.0 0.00 0.00 0.00 69 1001.2
20260505233327 38 286 2.0 0.0 0.00 0.00 0.00 68 1001.2
20260505232843 38 262 2.0 0.0 0.00 0.00 0.00 67 1001.1
20260505232335 38 254 2.0 0.0 0.00 0.00 0.00 67 1001.1
20260505231831 38 251 1.0 0.0 0.00 0.00 0.00 67 1001.1
20260505231351 38 261 1.0 0.0 0.00 0.00 0.00 66 1001.1
20260505230844 38 243 2.0 0.0 0.00 0.00 0.00 66 1001.1
20260505230339 38 259 3.0 0.0 0.00 0.00 0.00 66 1001.1
20260505225833 38 258 3.0 0.0 0.00 0.00 0.00 66 1001.1
20260505225346 38 282 1.0 0.0 0.00 0.00 0.00 67 1001.1
20260505224840 37 303 1.0 0.0 0.00 0.00 0.00 69 1001.1
20260505224333 37 265 1.0 0.0 0.00 0.00 0.00 69 1001.1
20260505223829 37 238 1.0 0.0 0.00 0.00 0.00 70 1001.1
20260505223355 37 250 1.0 0.0 0.00 0.00 0.00 71 1001.1
20260505222845 36 238 1.0 0.0 0.00 0.00 0.00 72 1001.1
20260505222336 36 276 1.0 0.0 0.00 0.00 0.00 73 1001.1
20260505221847 36 259 0.0 0.0 0.00 0.00 0.00 75 1001.1
20260505221344 35 227 0.0 0.0 0.00 0.00 0.00 75 1001.1
20260505220840 35 227 0.0 0.0 0.00 0.00 0.00 76 1001.1
20260505220335 35 226 0.0 0.0 0.00 0.00 0.00 76 1001.1
20260505215829 35 206 0.0 0.0 0.00 0.00 0.00 77 1001.0
20260505215342 35 220 1.0 0.0 0.00 0.00 0.00 78 1001.0
20260505214839 35 214 0.0 0.0 0.00 0.00 0.00 78 1001.0
20260505214332 35 199 0.0 0.0 0.00 0.00 0.00 79 1000.9
20260505213855 35 199 0.0 0.0 0.00 0.00 0.00 80 1000.9
20260505213350 36 199 0.0 0.0 0.00 0.00 0.00 80 1000.9
20260505212840 36 199 1.0 0.0 0.00 0.00 0.00 80 1000.8
20260505212335 36 199 1.0 0.0 0.00 0.00 0.00 81 1000.8
20260505211847 36 197 1.0 0.0 0.00 0.00 0.00 82 1000.8
20260505211340 36 196 1.0 0.0 0.00 0.00 0.00 82 1000.7
20260505210832 36 192 1.0 0.0 0.00 0.00 0.00 82 1000.7
20260505210347 36 206 1.0 0.0 0.00 0.00 0.00 82 1000.7
20260505205837 36 199 1.0 0.0 0.00 0.00 0.02 82 1000.6
20260505205330 36 196 1.0 0.0 0.00 0.00 0.02 81 1000.6
20260505204853 37 196 1.0 0.0 0.00 0.00 0.02 80 1000.6
20260505204342 37 200 1.0 0.0 0.00 0.00 0.02 78 1000.5
20260505203834 38 204 1.0 0.0 0.00 0.00 0.02 77 1000.6
20260505203333 38 200 1.0 0.0 0.00 0.00 0.02 77 1000.6
20260505202843 38 219 1.0 0.0 0.00 0.00 0.02 77 1000.5
20260505202336 38 219 1.0 0.0 0.00 0.00 0.02 75 1000.5
20260505201848 38 213 1.0 0.0 0.00 0.00 0.02 74 1000.5
20260505201341 39 210 1.0 0.0 0.00 0.00 0.02 73 1000.4
20260505200834 39 216 0.0 0.0 0.00 0.00 0.02 71 1000.4
20260505200330 39 211 0.0 0.0 0.00 0.00 0.02 68 1000.4
20260505195856 40 207 1.0 0.0 0.00 0.00 0.02 66 1000.4
20260505195344 40 227 1.0 0.0 0.00 0.00 0.02 65 1000.4
20260505194836 41 230 1.0 0.0 0.00 0.00 0.02 63 1000.4
20260505194329 41 248 2.0 0.0 0.00 0.00 0.02 62 1000.4
20260505193841 41 251 2.0 0.0 0.00 0.00 0.02 61 1000.4
20260505193336 41 279 2.0 0.0 0.00 0.00 0.02 59 1000.4
20260505192847 42 250 2.0 0.0 0.00 0.00 0.02 57 1000.2
20260505192340 42 247 3.0 0.0 0.00 0.00 0.02 56 1000.2
20260505191832 42 247 3.0 0.0 0.00 0.00 0.02 55 1000.2
20260505191356 42 227 3.0 0.0 0.00 0.00 0.02 55 1000.2
20260505190831 43 268 3.0 0.0 0.00 0.00 0.02 54 1000.2
20260505190344 43 271 4.0 0.0 0.00 0.00 0.02 54 1000.2
20260505185830 43 255 5.0 0.0 0.00 0.00 0.02 53 1000.1
20260505185343 43 279 5.0 0.0 0.00 0.00 0.02 53 1000.1
20260505184834 43 230 5.0 0.0 0.00 0.00 0.02 53 1000.1
20260505184359 44 259 4.0 0.0 0.00 0.00 0.02 52 999.8
20260505183858 44 261 4.0 0.0 0.00 0.00 0.02 52 999.8
20260505183352 44 298 4.0 0.0 0.00 0.00 0.02 51 999.8
20260505182841 44 248 4.0 0.0 0.00 0.00 0.02 51 999.6
20260505182331 45 227 3.0 0.0 0.00 0.00 0.02 50 999.6
20260505181846 45 227 3.0 0.0 0.00 0.00 0.02 50 999.6
20260505181336 45 255 3.0 0.0 0.00 0.00 0.02 49 999.6
20260505180842 45 202 3.0 0.0 0.00 0.00 0.02 50 999.6
20260505175857 45 261 4.0 0.0 0.00 0.00 0.02 50 999.4
20260505175352 45 248 3.0 0.0 0.00 0.00 0.02 50 999.4
20260505174843 46 240 3.0 0.0 0.00 0.00 0.02 50 999.4
20260505174336 46 247 5.0 0.0 0.00 0.00 0.02 50 999.4
20260505173848 46 268 6.0 0.0 0.00 0.00 0.02 50 999.4
20260505173342 46 303 6.0 0.0 0.00 0.00 0.02 51 999.4
20260505172832 46 250 6.0 0.0 0.00 0.00 0.02 51 999.2
20260505172344 46 265 5.0 0.0 0.00 0.00 0.02 51 999.2
20260505171835 45 255 5.0 0.0 0.00 0.00 0.02 51 999.2
20260505171330 45 244 4.0 0.0 0.00 0.00 0.02 51 999.1
20260505170852 45 234 5.0 0.0 0.00 0.00 0.02 52 999.1
20260505170347 45 259 6.0 0.0 0.00 0.00 0.02 52 999.1
20260505165836 46 211 6.0 0.0 0.00 0.00 0.02 52 999.1
20260505165329 46 262 6.0 0.0 0.00 0.00 0.02 51 999.1
20260505164841 47 223 5.0 0.0 0.00 0.00 0.02 49 999.1
20260505164337 48 195 5.0 0.0 0.00 0.00 0.02 49 999.1
20260505163832 48 255 5.0 0.0 0.00 0.00 0.02 49 999.1
20260505163343 48 200 7.0 0.0 0.00 0.00 0.02 49 999.1
20260505162834 48 245 7.0 0.0 0.00 0.00 0.02 49 999.0
20260505162357 48 224 6.0 0.0 0.00 0.00 0.02 52 999.0
20260505161849 47 233 7.0 0.0 0.00 0.00 0.02 50 999.0
20260505161342 47 293 6.0 0.0 0.00 0.00 0.02 54 999.0
20260505160833 47 241 6.0 0.0 0.00 0.00 0.02 53 999.0
20260505160349 47 206 7.0 0.0 0.00 0.00 0.02 53 999.0
20260505153355 47 228 7.0 0.0 0.00 0.00 0.02 54 998.9
20260505152844 47 220 8.0 0.0 0.00 0.00 0.02 54 998.8
20260505152340 47 262 9.0 0.0 0.00 0.00 0.02 54 998.8
20260505151831 48 243 9.0 0.0 0.00 0.00 0.02 52 998.8
20260505151328 48 228 8.0 0.0 0.00 0.00 0.02 50 998.6
20260505150844 48 257 8.0 0.0 0.00 0.00 0.02 48 998.6
20260505150338 48 285 9.0 0.0 0.00 0.00 0.02 46 998.6
20260505140346 48 192 10.0 0.0 0.00 0.00 0.02 40 998.5